contact:dominique.lefevre@mio.osupytheas.fr, maurice.libes@osupytheas.fr, didier.mallarino@osupytheas.fr
Project:EMSO http://www.emso-fr.org/EMSO-France
Depth: 2436.0 m
Title:EMSO Ligure Ouest : Data MII capteur MICROCAT
DateTime_Computer,Latitude,Longitude,Temperature,Conductivity,Pressure,DateTime_Instrument
DateTime_Computer,Latitude,Longitude,degC,S m-1,dbar,DateTime_Instrument
2022-06-29T00:01:02Z,42.805,6.029,13.3005,4.60044,2470.6,2022-6-29T02:02:47Z
2022-06-29T00:04:05Z,42.805,6.029,13.3009,4.60040,2470.6,2022-6-29T02:05:50Z
2022-06-29T00:07:09Z,42.805,6.029,13.3003,4.60041,2470.6,2022-6-29T02:08:53Z
2022-06-29T00:10:12Z,42.805,6.029,13.3007,4.60045,2470.614,2022-6-29T02:11:56Z
2022-06-29T00:13:15Z,42.805,6.029,13.3009,4.60040,2470.614,2022-6-29T02:15:00Z
2022-06-29T00:16:18Z,42.805,6.029,13.3009,4.60043,2470.6,2022-6-29T02:18:03Z
2022-06-29T00:19:21Z,42.805,6.029,13.3011,4.60051,2470.6,2022-6-29T02:21:06Z
2022-06-29T00:22:24Z,42.805,6.029,13.3006,4.60044,2470.637,2022-6-29T02:24:09Z
2022-06-29T00:25:27Z,42.805,6.029,13.3006,4.60042,2470.6,2022-6-29T02:27:12Z
2022-06-29T00:28:30Z,42.805,6.029,13.3006,4.60040,2470.577,2022-6-29T02:30:15Z
2022-06-29T00:31:34Z,42.805,6.029,13.3009,4.60041,2470.586,2022-6-29T02:33:18Z
2022-06-29T00:34:37Z,42.805,6.029,13.3006,4.60042,2470.614,2022-6-29T02:36:21Z
2022-06-29T00:37:40Z,42.805,6.029,13.3009,4.60043,2470.577,2022-6-29T02:39:25Z
2022-06-29T00:40:43Z,42.805,6.029,13.3009,4.60043,2470.637,2022-6-29T02:42:28Z
2022-06-29T00:43:46Z,42.805,6.029,13.3005,4.60042,2470.591,2022-6-29T02:45:31Z
2022-06-29T00:46:49Z,42.805,6.029,13.3008,4.60041,2470.624,2022-6-29T02:48:34Z
2022-06-29T00:49:52Z,42.805,6.029,13.3007,4.60039,2470.6,2022-6-29T02:51:37Z
2022-06-29T00:52:55Z,42.805,6.029,13.3010,4.60041,2470.577,2022-6-29T02:54:40Z
2022-06-29T00:55:59Z,42.805,6.029,13.3008,4.60040,2470.6,2022-6-29T02:57:43Z
2022-06-29T00:59:02Z,42.805,6.029,13.3006,4.60042,2470.553,2022-6-29T03:00:46Z
2022-06-29T01:02:05Z,42.805,6.029,13.3007,4.60042,2470.577,2022-6-29T03:03:49Z
2022-06-29T01:05:08Z,42.805,6.029,13.3009,4.60042,2470.591,2022-6-29T03:06:53Z
2022-06-29T01:08:11Z,42.805,6.029,13.3009,4.60045,2470.577,2022-6-29T03:09:56Z
2022-06-29T01:11:14Z,42.805,6.029,13.3005,4.60044,2470.6,2022-6-29T03:12:59Z
2022-06-29T01:14:17Z,42.805,6.029,13.3014,4.60039,2470.6,2022-6-29T03:16:02Z
2022-06-29T01:17:20Z,42.805,6.029,13.3009,4.60042,2470.624,2022-6-29T03:19:05Z
2022-06-29T01:20:23Z,42.805,6.029,13.3008,4.60041,2470.553,2022-6-29T03:22:08Z
2022-06-29T01:23:27Z,42.805,6.029,13.3008,4.60041,2470.577,2022-6-29T03:25:11Z
2022-06-29T01:26:30Z,42.805,6.029,13.3009,4.60039,2470.553,2022-6-29T03:28:14Z
2022-06-29T01:29:33Z,42.805,6.029,13.3009,4.60038,2470.577,2022-6-29T03:31:18Z
2022-06-29T01:32:36Z,42.805,6.029,13.3005,4.60039,2470.563,2022-6-29T03:34:21Z
2022-06-29T01:35:39Z,42.805,6.029,13.3007,4.60039,2470.577,2022-6-29T03:37:24Z
2022-06-29T01:38:42Z,42.805,6.029,13.3012,4.60038,2470.6,2022-6-29T03:40:27Z
2022-06-29T01:41:45Z,42.805,6.029,13.3010,4.60047,2470.577,2022-6-29T03:43:30Z
2022-06-29T01:44:48Z,42.805,6.029,13.3006,4.60039,2470.577,2022-6-29T03:46:33Z
2022-06-29T01:47:52Z,42.805,6.029,13.3009,4.60039,2470.553,2022-6-29T03:49:36Z
2022-06-29T01:50:55Z,42.805,6.029,13.3008,4.60042,2470.6,2022-6-29T03:52:39Z
2022-06-29T01:53:58Z,42.805,6.029,13.3004,4.60039,2470.577,2022-6-29T03:55:43Z
2022-06-29T01:57:01Z,42.805,6.029,13.3009,4.60040,2470.577,2022-6-29T03:58:46Z
2022-06-29T02:00:04Z,42.805,6.029,13.3007,4.60038,2470.567,2022-6-29T04:01:49Z
2022-06-29T02:03:07Z,42.805,6.029,13.3014,4.60039,2470.577,2022-6-29T04:04:52Z
2022-06-29T02:06:10Z,42.805,6.029,13.3009,4.60039,2470.53,2022-6-29T04:07:55Z
2022-06-29T02:09:13Z,42.805,6.029,13.3009,4.60039,2470.577,2022-6-29T04:10:58Z
2022-06-29T02:12:17Z,42.805,6.029,13.3006,4.60037,2470.553,2022-6-29T04:14:01Z
2022-06-29T02:15:20Z,42.805,6.029,13.3006,4.60038,2470.539,2022-6-29T04:17:04Z
2022-06-29T02:18:23Z,42.805,6.029,13.3011,4.60039,2470.591,2022-6-29T04:20:07Z
2022-06-29T02:21:26Z,42.805,6.029,13.3008,4.60039,2470.553,2022-6-29T04:23:11Z
2022-06-29T02:24:29Z,42.805,6.029,13.3009,4.60037,2470.577,2022-6-29T04:26:14Z
2022-06-29T02:27:32Z,42.805,6.029,13.3006,4.60039,2470.577,2022-6-29T04:29:17Z
2022-06-29T02:30:35Z,42.805,6.029,13.3009,4.60039,2470.591,2022-6-29T04:32:20Z
2022-06-29T02:33:38Z,42.805,6.029,13.3007,4.60042,2470.567,2022-6-29T04:35:23Z
2022-06-29T02:36:42Z,42.805,6.029,13.3013,4.60042,2470.591,2022-6-29T04:38:26Z
2022-06-29T02:39:45Z,42.805,6.029,13.3007,4.60043,2470.563,2022-6-29T04:41:29Z
2022-06-29T02:42:48Z,42.805,6.029,13.3006,4.60039,2470.577,2022-6-29T04:44:32Z
2022-06-29T02:45:51Z,42.805,6.029,13.3008,4.60040,2470.553,2022-6-29T04:47:36Z
2022-06-29T02:48:54Z,42.805,6.029,13.3006,4.60038,2470.553,2022-6-29T04:50:39Z
2022-06-29T02:51:57Z,42.805,6.029,13.3006,4.60038,2470.614,2022-6-29T04:53:42Z
2022-06-29T02:55:00Z,42.805,6.029,13.3007,4.60041,2470.577,2022-6-29T04:56:45Z
2022-06-29T02:58:03Z,42.805,6.029,13.3010,4.60039,2470.567,2022-6-29T04:59:48Z
2022-06-29T03:01:06Z,42.805,6.029,13.3006,4.60036,2470.553,2022-6-29T05:02:51Z
2022-06-29T03:04:10Z,42.805,6.029,13.3007,4.60038,2470.577,2022-6-29T05:05:54Z
2022-06-29T03:07:13Z,42.805,6.029,13.3006,4.60039,2470.567,2022-6-29T05:08:57Z
2022-06-29T03:10:16Z,42.805,6.029,13.3004,4.60042,2470.553,2022-6-29T05:12:01Z
2022-06-29T03:13:19Z,42.805,6.029,13.3006,4.60044,2470.553,2022-6-29T05:15:04Z
2022-06-29T03:16:22Z,42.805,6.029,13.3007,4.60036,2470.577,2022-6-29T05:18:07Z
2022-06-29T03:19:25Z,42.805,6.029,13.3006,4.60039,2470.553,2022-6-29T05:21:10Z
2022-06-29T03:22:28Z,42.805,6.029,13.3005,4.60042,2470.553,2022-6-29T05:24:13Z
2022-06-29T03:25:31Z,42.805,6.029,13.3004,4.60038,2470.591,2022-6-29T05:27:16Z
2022-06-29T03:28:35Z,42.805,6.029,13.3009,4.60039,2470.567,2022-6-29T05:30:19Z
2022-06-29T03:31:38Z,42.805,6.029,13.3006,4.60038,2470.553,2022-6-29T05:33:22Z
2022-06-29T03:34:41Z,42.805,6.029,13.3007,4.60040,2470.553,2022-6-29T05:36:26Z
2022-06-29T03:37:44Z,42.805,6.029,13.3011,4.60042,2470.577,2022-6-29T05:39:29Z
2022-06-29T03:40:47Z,42.805,6.029,13.3011,4.60038,2470.591,2022-6-29T05:42:32Z
2022-06-29T03:43:50Z,42.805,6.029,13.3006,4.60043,2470.577,2022-6-29T05:45:35Z
2022-06-29T03:46:53Z,42.805,6.029,13.3006,4.60042,2470.591,2022-6-29T05:48:38Z
2022-06-29T03:49:56Z,42.805,6.029,13.3010,4.60036,2470.577,2022-6-29T05:51:41Z
2022-06-29T03:53:00Z,42.805,6.029,13.3004,4.60037,2470.553,2022-6-29T05:54:44Z
2022-06-29T03:56:03Z,42.805,6.029,13.3006,4.60038,2470.553,2022-6-29T05:57:47Z
2022-06-29T03:59:06Z,42.805,6.029,13.3009,4.60038,2470.6,2022-6-29T06:00:51Z
2022-06-29T04:02:09Z,42.805,6.029,13.3011,4.60036,2470.591,2022-6-29T06:03:54Z
2022-06-29T04:05:12Z,42.805,6.029,13.3008,4.60039,2470.553,2022-6-29T06:06:57Z
2022-06-29T04:08:15Z,42.805,6.029,13.3009,4.60044,2470.6,2022-6-29T06:10:00Z
2022-06-29T04:11:18Z,42.805,6.029,13.3006,4.60041,2470.614,2022-6-29T06:13:03Z
2022-06-29T04:14:21Z,42.805,6.029,13.3007,4.60036,2470.577,2022-6-29T06:16:06Z
2022-06-29T04:17:25Z,42.805,6.029,13.3006,4.60043,2470.6,2022-6-29T06:19:09Z
2022-06-29T04:20:28Z,42.805,6.029,13.3006,4.60036,2470.577,2022-6-29T06:22:12Z
2022-06-29T04:23:31Z,42.805,6.029,13.3004,4.60037,2470.577,2022-6-29T06:25:15Z
2022-06-29T04:26:34Z,42.805,6.029,13.3005,4.60036,2470.6,2022-6-29T06:28:19Z
2022-06-29T04:29:37Z,42.805,6.029,13.3009,4.60039,2470.6,2022-6-29T06:31:22Z
2022-06-29T04:32:40Z,42.805,6.029,13.3009,4.60036,2470.624,2022-6-29T06:34:25Z
2022-06-29T04:35:43Z,42.805,6.029,13.3011,4.60036,2470.577,2022-6-29T06:37:28Z
2022-06-29T04:38:46Z,42.805,6.029,13.3011,4.60039,2470.6,2022-6-29T06:40:31Z
2022-06-29T04:41:49Z,42.805,6.029,13.3006,4.60036,2470.6,2022-6-29T06:43:34Z
2022-06-29T04:44:53Z,42.805,6.029,13.3009,4.60042,2470.6,2022-6-29T06:46:37Z
2022-06-29T04:47:56Z,42.805,6.029,13.3009,4.60036,2470.614,2022-6-29T06:49:40Z
2022-06-29T04:50:59Z,42.805,6.029,13.3006,4.60044,2470.591,2022-6-29T06:52:44Z
2022-06-29T04:54:02Z,42.805,6.029,13.3011,4.60039,2470.614,2022-6-29T06:55:47Z
2022-06-29T04:57:05Z,42.805,6.029,13.3007,4.60039,2470.646,2022-6-29T06:58:50Z
2022-06-29T05:00:08Z,42.805,6.029,13.3007,4.60038,2470.624,2022-6-29T07:01:53Z
2022-06-29T05:03:11Z,42.805,6.029,13.3008,4.60037,2470.614,2022-6-29T07:04:56Z
2022-06-29T05:06:14Z,42.805,6.029,13.3007,4.60037,2470.6,2022-6-29T07:07:59Z
2022-06-29T05:09:18Z,42.805,6.029,13.3011,4.60037,2470.591,2022-6-29T07:11:02Z
2022-06-29T05:12:21Z,42.805,6.029,13.3006,4.60038,2470.614,2022-6-29T07:14:05Z
2022-06-29T05:15:24Z,42.805,6.029,13.3004,4.60036,2470.614,2022-6-29T07:17:09Z
2022-06-29T05:18:27Z,42.805,6.029,13.3006,4.60035,2470.637,2022-6-29T07:20:12Z
2022-06-29T05:21:30Z,42.805,6.029,13.3005,4.60039,2470.6,2022-6-29T07:23:15Z
2022-06-29T05:24:33Z,42.805,6.029,13.3005,4.60040,2470.624,2022-6-29T07:26:18Z
2022-06-29T05:27:36Z,42.805,6.029,13.3004,4.60038,2470.6,2022-6-29T07:29:21Z
2022-06-29T05:30:39Z,42.805,6.029,13.3004,4.60040,2470.624,2022-6-29T07:32:24Z
2022-06-29T05:33:43Z,42.805,6.029,13.3010,4.60037,2470.661,2022-6-29T07:35:27Z
2022-06-29T05:36:46Z,42.805,6.029,13.3008,4.60039,2470.624,2022-6-29T07:38:30Z
2022-06-29T05:39:49Z,42.805,6.029,13.3007,4.60037,2470.646,2022-6-29T07:41:34Z
2022-06-29T05:42:52Z,42.805,6.029,13.3009,4.60036,2470.637,2022-6-29T07:44:37Z
2022-06-29T05:45:55Z,42.805,6.029,13.3004,4.60037,2470.646,2022-6-29T07:47:40Z
2022-06-29T05:48:58Z,42.805,6.029,13.3004,4.60037,2470.6,2022-6-29T07:50:43Z
2022-06-29T05:52:01Z,42.805,6.029,13.3006,4.60036,2470.661,2022-6-29T07:53:46Z
2022-06-29T05:55:04Z,42.805,6.029,13.3005,4.60037,2470.646,2022-6-29T07:56:49Z
2022-06-29T05:58:08Z,42.805,6.029,13.3006,4.60038,2470.661,2022-6-29T07:59:52Z
2022-06-29T06:01:11Z,42.805,6.029,13.3007,4.60037,2470.67,2022-6-29T08:02:55Z
2022-06-29T06:04:14Z,42.805,6.029,13.3000,4.60039,2470.646,2022-6-29T08:05:59Z
2022-06-29T06:07:17Z,42.805,6.029,13.3005,4.60036,2470.624,2022-6-29T08:09:02Z
2022-06-29T06:10:20Z,42.805,6.029,13.3006,4.60037,2470.646,2022-6-29T08:12:05Z
2022-06-29T06:13:23Z,42.805,6.029,13.3007,4.60037,2470.661,2022-6-29T08:15:08Z
2022-06-29T06:16:26Z,42.805,6.029,13.3007,4.60037,2470.624,2022-6-29T08:18:11Z
2022-06-29T06:19:29Z,42.805,6.029,13.3011,4.60041,2470.67,2022-6-29T08:21:14Z
2022-06-29T06:22:32Z,42.805,6.029,13.3008,4.60042,2470.646,2022-6-29T08:24:17Z
2022-06-29T06:25:36Z,42.805,6.029,13.3012,4.60036,2470.661,2022-6-29T08:27:20Z
2022-06-29T06:28:39Z,42.805,6.029,13.3009,4.60045,2470.624,2022-6-29T08:30:23Z
2022-06-29T06:31:42Z,42.805,6.029,13.3009,4.60036,2470.646,2022-6-29T08:33:27Z
2022-06-29T06:34:45Z,42.805,6.029,13.3010,4.60045,2470.684,2022-6-29T08:36:30Z
2022-06-29T06:37:48Z,42.805,6.029,13.3010,4.60037,2470.646,2022-6-29T08:39:33Z
2022-06-29T06:40:51Z,42.805,6.029,13.3008,4.60038,2470.646,2022-6-29T08:42:36Z
2022-06-29T06:43:54Z,42.805,6.029,13.3006,4.60041,2470.624,2022-6-29T08:45:39Z
2022-06-29T06:46:57Z,42.805,6.029,13.3006,4.60039,2470.624,2022-6-29T08:48:42Z
2022-06-29T06:50:01Z,42.805,6.029,13.3006,4.60037,2470.646,2022-6-29T08:51:45Z
2022-06-29T06:53:04Z,42.805,6.029,13.3007,4.60042,2470.646,2022-6-29T08:54:48Z
2022-06-29T06:56:07Z,42.805,6.029,13.3010,4.60046,2470.624,2022-6-29T08:57:52Z
2022-06-29T06:59:10Z,42.805,6.029,13.3005,4.60039,2470.646,2022-6-29T09:00:55Z
2022-06-29T07:02:13Z,42.805,6.029,13.3004,4.60038,2470.661,2022-6-29T09:03:58Z
2022-06-29T07:05:16Z,42.805,6.029,13.3006,4.60038,2470.661,2022-6-29T09:07:01Z
2022-06-29T07:08:19Z,42.805,6.029,13.3006,4.60039,2470.646,2022-6-29T09:10:04Z
2022-06-29T07:11:22Z,42.805,6.029,13.3006,4.60036,2470.624,2022-6-29T09:13:07Z
2022-06-29T07:14:26Z,42.805,6.029,13.3005,4.60039,2470.646,2022-6-29T09:16:10Z
2022-06-29T07:17:29Z,42.805,6.029,13.3005,4.60036,2470.624,2022-6-29T09:19:13Z
2022-06-29T07:20:32Z,42.805,6.029,13.3009,4.60036,2470.646,2022-6-29T09:22:17Z
2022-06-29T07:23:35Z,42.805,6.029,13.3004,4.60036,2470.646,2022-6-29T09:25:20Z
2022-06-29T07:26:38Z,42.805,6.029,13.3004,4.60044,2470.646,2022-6-29T09:28:23Z
2022-06-29T07:29:41Z,42.805,6.029,13.3004,4.60036,2470.637,2022-6-29T09:31:26Z
2022-06-29T07:32:44Z,42.805,6.029,13.3009,4.60038,2470.624,2022-6-29T09:34:29Z
2022-06-29T07:35:47Z,42.805,6.029,13.3007,4.60036,2470.646,2022-6-29T09:37:32Z
2022-06-29T07:38:51Z,42.805,6.029,13.3004,4.60036,2470.684,2022-6-29T09:40:35Z
2022-06-29T07:41:54Z,42.805,6.029,13.3008,4.60036,2470.637,2022-6-29T09:43:38Z
2022-06-29T07:44:57Z,42.805,6.029,13.3004,4.60037,2470.661,2022-6-29T09:46:42Z
2022-06-29T07:48:00Z,42.805,6.029,13.3004,4.60039,2470.637,2022-6-29T09:49:45Z
2022-06-29T07:51:03Z,42.805,6.029,13.3004,4.60037,2470.637,2022-6-29T09:52:48Z
2022-06-29T07:54:06Z,42.805,6.029,13.3006,4.60042,2470.637,2022-6-29T09:55:51Z
2022-06-29T07:57:09Z,42.805,6.029,13.3005,4.60037,2470.646,2022-6-29T09:58:54Z
2022-06-29T08:00:12Z,42.805,6.029,13.3005,4.60036,2470.624,2022-6-29T10:01:57Z
2022-06-29T08:03:16Z,42.805,6.029,13.3011,4.60037,2470.637,2022-6-29T10:05:00Z
2022-06-29T08:06:19Z,42.805,6.029,13.3004,4.60039,2470.661,2022-6-29T10:08:03Z
2022-06-29T08:09:22Z,42.805,6.029,13.3006,4.60037,2470.646,2022-6-29T10:11:07Z
2022-06-29T08:12:25Z,42.805,6.029,13.3006,4.60036,2470.637,2022-6-29T10:14:10Z
2022-06-29T08:15:28Z,42.805,6.029,13.3005,4.60037,2470.624,2022-6-29T10:17:13Z
2022-06-29T08:18:31Z,42.805,6.029,13.3006,4.60036,2470.646,2022-6-29T10:20:16Z
2022-06-29T08:21:34Z,42.805,6.029,13.3006,4.60036,2470.624,2022-6-29T10:23:19Z
2022-06-29T08:24:37Z,42.805,6.029,13.3006,4.60036,2470.637,2022-6-29T10:26:22Z
2022-06-29T08:27:41Z,42.805,6.029,13.3005,4.60038,2470.624,2022-6-29T10:29:25Z
2022-06-29T08:30:44Z,42.805,6.029,13.3006,4.60038,2470.624,2022-6-29T10:32:28Z
2022-06-29T08:33:47Z,42.805,6.029,13.3009,4.60036,2470.646,2022-6-29T10:35:32Z
2022-06-29T08:36:50Z,42.805,6.029,13.3009,4.60036,2470.6,2022-6-29T10:38:35Z
2022-06-29T08:39:53Z,42.805,6.029,13.3007,4.60037,2470.624,2022-6-29T10:41:38Z
2022-06-29T08:42:56Z,42.805,6.029,13.3004,4.60036,2470.646,2022-6-29T10:44:41Z
2022-06-29T08:45:59Z,42.805,6.029,13.3009,4.60039,2470.624,2022-6-29T10:47:44Z
2022-06-29T08:49:02Z,42.805,6.029,13.3005,4.60041,2470.624,2022-6-29T10:50:47Z
2022-06-29T08:52:06Z,42.805,6.029,13.3009,4.60038,2470.637,2022-6-29T10:53:50Z
2022-06-29T08:55:09Z,42.805,6.029,13.3006,4.60037,2470.624,2022-6-29T10:56:53Z
2022-06-29T08:58:12Z,42.805,6.029,13.3008,4.60039,2470.661,2022-6-29T10:59:57Z
2022-06-29T09:01:15Z,42.805,6.029,13.3007,4.60044,2470.646,2022-6-29T11:03:00Z
2022-06-29T09:04:18Z,42.805,6.029,13.3004,4.60045,2470.661,2022-6-29T11:06:03Z
2022-06-29T09:07:21Z,42.805,6.029,13.3005,4.60039,2470.614,2022-6-29T11:09:06Z
2022-06-29T09:10:24Z,42.805,6.029,13.3006,4.60036,2470.614,2022-6-29T11:12:09Z
2022-06-29T09:13:27Z,42.805,6.029,13.3006,4.60036,2470.6,2022-6-29T11:15:12Z
2022-06-29T09:16:31Z,42.805,6.029,13.3008,4.60038,2470.624,2022-6-29T11:18:15Z
2022-06-29T09:19:34Z,42.805,6.029,13.3004,4.60039,2470.614,2022-6-29T11:21:18Z
2022-06-29T09:22:37Z,42.805,6.029,13.3006,4.60042,2470.591,2022-6-29T11:24:22Z
2022-06-29T09:25:40Z,42.805,6.029,13.3000,4.60040,2470.577,2022-6-29T11:27:25Z
2022-06-29T09:28:43Z,42.805,6.029,13.3010,4.60036,2470.591,2022-6-29T11:30:28Z
2022-06-29T09:31:46Z,42.805,6.029,13.3005,4.60038,2470.577,2022-6-29T11:33:31Z
2022-06-29T09:34:49Z,42.805,6.029,13.3006,4.60037,2470.6,2022-6-29T11:36:34Z
2022-06-29T09:37:52Z,42.805,6.029,13.3005,4.60044,2470.6,2022-6-29T11:39:37Z
2022-06-29T09:40:56Z,42.805,6.029,13.3009,4.60039,2470.6,2022-6-29T11:42:40Z
2022-06-29T09:43:59Z,42.805,6.029,13.3006,4.60039,2470.6,2022-6-29T11:45:43Z
2022-06-29T09:47:02Z,42.805,6.029,13.3004,4.60038,2470.6,2022-6-29T11:48:47Z
2022-06-29T09:50:05Z,42.805,6.029,13.3006,4.60038,2470.553,2022-6-29T11:51:50Z
2022-06-29T09:53:08Z,42.805,6.029,13.3006,4.60038,2470.577,2022-6-29T11:54:53Z
2022-06-29T09:56:11Z,42.805,6.029,13.3006,4.60037,2470.577,2022-6-29T11:57:56Z
2022-06-29T09:59:14Z,42.805,6.029,13.3007,4.60044,2470.591,2022-6-29T12:00:59Z
2022-06-29T10:02:17Z,42.805,6.029,13.3006,4.60040,2470.553,2022-6-29T12:04:02Z
2022-06-29T10:05:21Z,42.805,6.029,13.3009,4.60039,2470.591,2022-6-29T12:07:05Z
2022-06-29T10:08:24Z,42.805,6.029,13.3007,4.60037,2470.553,2022-6-29T12:10:08Z
2022-06-29T10:11:27Z,42.805,6.029,13.3007,4.60039,2470.591,2022-6-29T12:13:12Z
2022-06-29T10:14:30Z,42.805,6.029,13.3009,4.60038,2470.53,2022-6-29T12:16:15Z
2022-06-29T10:17:33Z,42.805,6.029,13.3009,4.60037,2470.53,2022-6-29T12:19:18Z
2022-06-29T10:20:36Z,42.805,6.029,13.3009,4.60037,2470.591,2022-6-29T12:22:21Z
2022-06-29T10:23:39Z,42.805,6.029,13.3009,4.60042,2470.544,2022-6-29T12:25:24Z
2022-06-29T10:26:42Z,42.805,6.029,13.3012,4.60040,2470.553,2022-6-29T12:28:27Z
2022-06-29T10:29:46Z,42.805,6.029,13.3006,4.60037,2470.591,2022-6-29T12:31:30Z
2022-06-29T10:32:49Z,42.805,6.029,13.3006,4.60040,2470.567,2022-6-29T12:34:33Z
2022-06-29T10:35:52Z,42.805,6.029,13.3011,4.60039,2470.567,2022-6-29T12:37:37Z
2022-06-29T10:38:55Z,42.805,6.029,13.3011,4.60038,2470.591,2022-6-29T12:40:40Z
2022-06-29T10:41:58Z,42.805,6.029,13.3008,4.60040,2470.553,2022-6-29T12:43:43Z
2022-06-29T10:45:01Z,42.805,6.029,13.3011,4.60053,2470.53,2022-6-29T12:46:46Z
2022-06-29T10:48:04Z,42.805,6.029,13.3008,4.60039,2470.544,2022-6-29T12:49:49Z
2022-06-29T10:51:07Z,42.805,6.029,13.3008,4.60038,2470.567,2022-6-29T12:52:52Z
2022-06-29T10:54:11Z,42.805,6.029,13.3008,4.60039,2470.553,2022-6-29T12:55:55Z
2022-06-29T10:57:14Z,42.805,6.029,13.3004,4.60041,2470.553,2022-6-29T12:58:58Z
2022-06-29T11:00:17Z,42.805,6.029,13.3006,4.60042,2470.53,2022-6-29T13:02:02Z
2022-06-29T11:03:20Z,42.805,6.029,13.3005,4.60040,2470.53,2022-6-29T13:05:05Z
2022-06-29T11:06:23Z,42.805,6.029,13.3008,4.60039,2470.53,2022-6-29T13:08:08Z
2022-06-29T11:09:26Z,42.805,6.029,13.3008,4.60039,2470.53,2022-6-29T13:11:11Z
2022-06-29T11:12:29Z,42.805,6.029,13.3006,4.60043,2470.507,2022-6-29T13:14:14Z
2022-06-29T11:15:32Z,42.805,6.029,13.3005,4.60044,2470.53,2022-6-29T13:17:17Z
2022-06-29T11:18:36Z,42.805,6.029,13.3006,4.60039,2470.544,2022-6-29T13:20:20Z
2022-06-29T11:21:39Z,42.805,6.029,13.3007,4.60039,2470.507,2022-6-29T13:23:23Z
2022-06-29T11:24:42Z,42.805,6.029,13.3007,4.60039,2470.544,2022-6-29T13:26:27Z
2022-06-29T11:27:45Z,42.805,6.029,13.3007,4.60039,2470.53,2022-6-29T13:29:30Z
2022-06-29T11:30:48Z,42.805,6.029,13.3004,4.60040,2470.53,2022-6-29T13:32:33Z
2022-06-29T11:33:51Z,42.805,6.029,13.3006,4.60038,2470.53,2022-6-29T13:35:36Z
2022-06-29T11:36:54Z,42.805,6.029,13.3010,4.60039,2470.53,2022-6-29T13:38:39Z
2022-06-29T11:39:57Z,42.805,6.029,13.3005,4.60040,2470.52,2022-6-29T13:41:42Z
2022-06-29T11:43:01Z,42.805,6.029,13.3007,4.60038,2470.507,2022-6-29T13:44:45Z
2022-06-29T11:46:04Z,42.805,6.029,13.3006,4.60043,2470.483,2022-6-29T13:47:49Z
2022-06-29T11:49:07Z,42.805,6.029,13.3006,4.60039,2470.493,2022-6-29T13:50:52Z
2022-06-29T11:52:10Z,42.805,6.029,13.3001,4.60041,2470.507,2022-6-29T13:53:55Z
2022-06-29T11:55:13Z,42.805,6.029,13.3010,4.60039,2470.46,2022-6-29T13:56:58Z
2022-06-29T11:58:16Z,42.805,6.029,13.3008,4.60040,2470.46,2022-6-29T14:00:01Z
2022-06-29T12:01:19Z,42.805,6.029,13.3007,4.60039,2470.497,2022-6-29T14:03:04Z
2022-06-29T12:04:22Z,42.805,6.029,13.3004,4.60044,2470.483,2022-6-29T14:06:07Z
2022-06-29T12:07:26Z,42.805,6.029,13.3006,4.60041,2470.507,2022-6-29T14:09:10Z
2022-06-29T12:10:29Z,42.805,6.029,13.3004,4.60038,2470.53,2022-6-29T14:12:13Z
2022-06-29T12:13:32Z,42.805,6.029,13.3002,4.60041,2470.507,2022-6-29T14:15:17Z
2022-06-29T12:16:35Z,42.805,6.029,13.3007,4.60040,2470.497,2022-6-29T14:18:20Z
2022-06-29T12:19:38Z,42.805,6.029,13.3006,4.60042,2470.497,2022-6-29T14:21:23Z
2022-06-29T12:22:41Z,42.805,6.029,13.3007,4.60043,2470.483,2022-6-29T14:24:26Z
2022-06-29T12:25:44Z,42.805,6.029,13.3003,4.60040,2470.46,2022-6-29T14:27:29Z
2022-06-29T12:28:47Z,42.805,6.029,13.3004,4.60042,2470.52,2022-6-29T14:30:32Z
2022-06-29T12:31:51Z,42.805,6.029,13.3008,4.60039,2470.497,2022-6-29T14:33:35Z
2022-06-29T12:34:54Z,42.805,6.029,13.3007,4.60042,2470.483,2022-6-29T14:36:39Z
2022-06-29T12:37:57Z,42.805,6.029,13.3007,4.60039,2470.483,2022-6-29T14:39:42Z
2022-06-29T12:41:00Z,42.805,6.029,13.3005,4.60046,2470.47,2022-6-29T14:42:45Z
2022-06-29T12:44:03Z,42.805,6.029,13.3004,4.60039,2470.46,2022-6-29T14:45:48Z
2022-06-29T12:47:06Z,42.805,6.029,13.3009,4.60043,2470.474,2022-6-29T14:48:51Z
2022-06-29T12:50:09Z,42.805,6.029,13.3007,4.60039,2470.483,2022-6-29T14:51:54Z
2022-06-29T12:53:13Z,42.805,6.029,13.3003,4.60039,2470.46,2022-6-29T14:54:57Z
2022-06-29T12:56:16Z,42.805,6.029,13.3006,4.60042,2470.46,2022-6-29T14:58:00Z
2022-06-29T12:59:19Z,42.805,6.029,13.3011,4.60044,2470.52,2022-6-29T15:01:04Z
2022-06-29T13:02:22Z,42.805,6.029,13.3007,4.60039,2470.483,2022-6-29T15:04:07Z
2022-06-29T13:05:25Z,42.805,6.029,13.3008,4.60041,2470.483,2022-6-29T15:07:10Z
2022-06-29T13:08:28Z,42.805,6.029,13.3006,4.60041,2470.46,2022-6-29T15:10:13Z
2022-06-29T13:11:31Z,42.805,6.029,13.3007,4.60036,2470.52,2022-6-29T15:13:16Z
2022-06-29T13:14:34Z,42.805,6.029,13.3005,4.60041,2470.507,2022-6-29T15:16:19Z
2022-06-29T13:17:37Z,42.805,6.029,13.3004,4.60041,2470.507,2022-6-29T15:19:22Z
2022-06-29T13:20:41Z,42.805,6.029,13.3004,4.60039,2470.46,2022-6-29T15:22:25Z
2022-06-29T13:23:44Z,42.805,6.029,13.3004,4.60041,2470.507,2022-6-29T15:25:29Z
2022-06-29T13:26:47Z,42.805,6.029,13.3008,4.60039,2470.507,2022-6-29T15:28:32Z
2022-06-29T13:29:50Z,42.805,6.029,13.3006,4.60039,2470.497,2022-6-29T15:31:35Z
2022-06-29T13:32:53Z,42.805,6.029,13.3009,4.60041,2470.493,2022-6-29T15:34:38Z
2022-06-29T13:35:56Z,42.805,6.029,13.3006,4.60039,2470.52,2022-6-29T15:37:41Z
2022-06-29T13:38:59Z,42.805,6.029,13.3005,4.60040,2470.474,2022-6-29T15:40:44Z
2022-06-29T13:42:03Z,42.805,6.029,13.3006,4.60037,2470.497,2022-6-29T15:43:47Z
2022-06-29T13:45:06Z,42.805,6.029,13.3006,4.60038,2470.46,2022-6-29T15:46:50Z
2022-06-29T13:48:09Z,42.805,6.029,13.3008,4.60039,2470.483,2022-6-29T15:49:54Z
2022-06-29T13:51:12Z,42.805,6.029,13.3004,4.60041,2470.474,2022-6-29T15:52:57Z
2022-06-29T13:54:15Z,42.805,6.029,13.3004,4.60042,2470.507,2022-6-29T15:56:00Z
2022-06-29T13:57:18Z,42.805,6.029,13.3006,4.60041,2470.483,2022-6-29T15:59:03Z
2022-06-29T14:00:21Z,42.805,6.029,13.3004,4.60039,2470.52,2022-6-29T16:02:06Z
2022-06-29T14:03:24Z,42.805,6.029,13.3006,4.60039,2470.46,2022-6-29T16:05:09Z
2022-06-29T14:06:28Z,42.805,6.029,13.3009,4.60039,2470.507,2022-6-29T16:08:12Z
2022-06-29T14:09:31Z,42.805,6.029,13.3004,4.60039,2470.52,2022-6-29T16:11:15Z
2022-06-29T14:12:34Z,42.805,6.029,13.3006,4.60039,2470.497,2022-6-29T16:14:19Z
2022-06-29T14:15:37Z,42.805,6.029,13.3005,4.60039,2470.483,2022-6-29T16:17:22Z
2022-06-29T14:18:40Z,42.805,6.029,13.3006,4.60037,2470.507,2022-6-29T16:20:25Z
2022-06-29T14:21:43Z,42.805,6.029,13.3005,4.60038,2470.507,2022-6-29T16:23:28Z
2022-06-29T14:24:46Z,42.805,6.029,13.3005,4.60039,2470.483,2022-6-29T16:26:31Z
2022-06-29T14:27:49Z,42.805,6.029,13.3006,4.60039,2470.483,2022-6-29T16:29:34Z
2022-06-29T14:30:53Z,42.805,6.029,13.3009,4.60039,2470.46,2022-6-29T16:32:37Z
2022-06-29T14:33:56Z,42.805,6.029,13.3005,4.60037,2470.497,2022-6-29T16:35:40Z
2022-06-29T14:36:59Z,42.805,6.029,13.3006,4.60038,2470.483,2022-6-29T16:38:44Z
2022-06-29T14:40:02Z,42.805,6.029,13.3006,4.60041,2470.46,2022-6-29T16:41:47Z
2022-06-29T14:43:05Z,42.805,6.029,13.3011,4.60040,2470.483,2022-6-29T16:44:50Z
2022-06-29T14:46:08Z,42.805,6.029,13.3006,4.60038,2470.483,2022-6-29T16:47:53Z
2022-06-29T14:49:11Z,42.805,6.029,13.3008,4.60039,2470.45,2022-6-29T16:50:56Z
2022-06-29T14:52:14Z,42.805,6.029,13.3005,4.60039,2470.497,2022-6-29T16:53:59Z
2022-06-29T14:55:18Z,42.805,6.029,13.3005,4.60037,2470.507,2022-6-29T16:57:02Z
2022-06-29T14:58:21Z,42.805,6.029,13.3006,4.60038,2470.497,2022-6-29T17:00:05Z
2022-06-29T15:01:24Z,42.805,6.029,13.3006,4.60040,2470.52,2022-6-29T17:03:09Z
2022-06-29T15:04:27Z,42.805,6.029,13.3009,4.60040,2470.483,2022-6-29T17:06:12Z
2022-06-29T15:07:30Z,42.805,6.029,13.3006,4.60039,2470.507,2022-6-29T17:09:15Z
2022-06-29T15:10:33Z,42.805,6.029,13.3005,4.60039,2470.483,2022-6-29T17:12:18Z
2022-06-29T15:13:36Z,42.805,6.029,13.3009,4.60037,2470.52,2022-6-29T17:15:21Z